Delaware, OH

2:06 AM EDT on August 19, 2017 (GMT -0400)
Delaware Municipal

Weather History for KDLZ - September, 2012

Change the Weather History Date:

Sunday, September 2, 2012

  Actual Average Record
Temperature  
Mean Temperature 76 °F -  
Max Temperature 82 °F 79 °F 97 °F (1953)
Min Temperature 69 °F 56 °F 43 °F (1946)
Cooling Degree Days 10    
Growing Degree Days 26 (Base 50)    
Moisture  
Dew Point 69 °F    
Average Humidity 86    
Maximum Humidity 100    
Minimum Humidity 66    
Precipitation  
Precipitation 0.57 in - - ()
Sea Level Pressure  
Sea Level Pressure 29.98 in    
Wind  
Wind Speed 6 mph (ESE)    
Max Wind Speed 10 mph    
Max Gust Speed -    
Visibility 9 miles    
Events Rain , Thunderstorm    
Averages and records for this station are not official NWS values.
T = Trace of Precipitation, MM = Missing Value Source: NWS Daily Summary

Daily Weather History Graph

Daily Weather History Graph

Search for Another Location

Airport or City:

Trip Planner

Search our weather history database for the weather conditions in past years. The results will help you decide how hot, cold, wet, or windy it might be!

Date:

Astronomy

Sep. 02, 2012 Rise Set
Actual Time 7:01 AM EDT 8:01 PM EDT
Civil Twilight 6:33 AM EDT 8:29 PM EDT
Nautical Twilight 6:00 AM EDT 9:02 PM EDT
Astronomical Twilight 5:25 AM EDT 9:36 PM EDT
Moon 8:48 PM EDT (9/2) 9:09 AM EDT (9/2)
Length of Visible Light 13h 56m
Length of Day
13h 00m
Waning Gibbous, 95% of the Moon is Illuminated
Sep 2
Waning Gibbous
Sep 8
Last Quarter
Sep 15
New
Sep 22
First Quarter
Sep 29
Full

Hourly Weather History & Observations

Time (EDT) Temp. Heat Index Dew Point Humidity Pressure Visibility Wind Dir Wind Speed Gust Speed Precip Events Conditions
12:14 AM 71.6 °F - 69.8 °F 94% 30.06 in 7.0 mi East 3.5 mph - N/A   Overcast
12:34 AM 71.6 °F - 69.8 °F 94% 30.06 in 7.0 mi East 3.5 mph - 0.01 in   Overcast
12:54 AM 71.6 °F - 69.8 °F 94% 30.05 in 7.0 mi East 3.5 mph - 0.01 in   Overcast
1:14 AM 71.6 °F - 69.8 °F 94% 30.05 in 5.0 mi East 5.8 mph - N/A Rain Light Rain
1:34 AM 71.6 °F - 69.8 °F 94% 30.05 in 5.0 mi ESE 4.6 mph - N/A   Drizzle
1:54 AM 71.6 °F - 69.8 °F 94% 30.04 in 7.0 mi ESE 4.6 mph - 0.01 in   Drizzle
2:14 AM 71.6 °F - 69.8 °F 94% 30.03 in 7.0 mi ESE 3.5 mph - N/A   Drizzle
2:34 AM 71.6 °F - 69.8 °F 94% 30.03 in 7.0 mi East 5.8 mph - N/A Rain Light Rain
2:54 AM 71.6 °F - 69.8 °F 94% 30.03 in 7.0 mi East 8.1 mph - N/A Rain Light Rain
3:14 AM 69.8 °F - 69.8 °F 100% 30.02 in 7.0 mi East 6.9 mph - N/A Rain Light Rain
3:34 AM 69.8 °F - 69.8 °F 100% 30.01 in 5.0 mi East 6.9 mph - 0.03 in Rain Rain
3:54 AM 69.8 °F - 69.8 °F 100% 30.01 in 7.0 mi East 8.1 mph - 0.03 in   Light Drizzle
4:14 AM 69.8 °F - 69.8 °F 100% 30.01 in 10.0 mi ESE 6.9 mph - N/A   Overcast
4:34 AM 69.8 °F - 68.0 °F 94% 30.01 in 7.0 mi Calm Calm - 0.02 in Rain , Thunderstorm Rain
4:54 AM 69.8 °F - 68.0 °F 94% 30.02 in 4.0 mi East 3.5 mph - 0.07 in Rain Heavy Rain
5:14 AM 69.8 °F - 68.0 °F 94% 30.02 in 2.0 mi East 4.6 mph - 0.16 in Rain Heavy Rain
5:34 AM 69.8 °F - 68.0 °F 94% 30.01 in 4.0 mi Calm Calm - 0.36 in Rain , Thunderstorm Heavy Thunderstorms and Rain
5:54 AM 69.8 °F - 68.0 °F 94% 30.01 in 5.0 mi East 4.6 mph - 0.42 in Rain Rain
6:14 AM 69.8 °F - 68.0 °F 94% 30.01 in 5.0 mi East 4.6 mph - 0.02 in Rain , Thunderstorm Light Thunderstorms and Rain
6:34 AM 69.8 °F - 68.0 °F 94% 30.02 in 7.0 mi East 4.6 mph - 0.02 in   Scattered Clouds
6:54 AM 69.8 °F - 68.0 °F 94% 30.02 in 7.0 mi East 4.6 mph - 0.02 in   Scattered Clouds
7:14 AM 69.8 °F - 68.0 °F 94% 30.02 in 7.0 mi East 4.6 mph - 0.01 in   Clear
7:34 AM 69.8 °F - 68.0 °F 94% 30.02 in 10.0 mi ESE 4.6 mph - 0.01 in   Clear
7:54 AM 69.8 °F - 68.0 °F 94% 30.01 in 10.0 mi ESE 4.6 mph - 0.01 in   Clear
8:14 AM 69.8 °F - 68.0 °F 94% 30.01 in 10.0 mi ESE 4.6 mph - N/A   Clear
8:34 AM 69.8 °F - 69.8 °F 100% 30.01 in 10.0 mi ESE 6.9 mph - N/A   Clear
8:54 AM 71.6 °F - 69.8 °F 94% 30.00 in 10.0 mi ESE 8.1 mph - N/A   Scattered Clouds
9:14 AM 71.6 °F - 69.8 °F 94% 30.00 in 10.0 mi ESE 6.9 mph - N/A   Scattered Clouds
9:34 AM 71.6 °F - 69.8 °F 94% 30.00 in 10.0 mi SE 5.8 mph - N/A   Scattered Clouds
9:54 AM 71.6 °F - 69.8 °F 94% 30.00 in 10.0 mi SE 6.9 mph - N/A   Scattered Clouds
10:14 AM 73.4 °F - 69.8 °F 88% 30.01 in 10.0 mi SSE 6.9 mph - N/A   Scattered Clouds
10:34 AM 73.4 °F - 69.8 °F 88% 30.01 in 10.0 mi SSE 4.6 mph - N/A   Mostly Cloudy
10:54 AM 73.4 °F - 69.8 °F 88% 30.01 in 10.0 mi SE 3.5 mph - N/A   Mostly Cloudy
11:14 AM 73.4 °F - 69.8 °F 88% 30.01 in 10.0 mi ESE 6.9 mph - N/A   Scattered Clouds
11:34 AM 75.2 °F - 69.8 °F 83% 30.01 in 10.0 mi East 6.9 mph - N/A   Scattered Clouds
11:54 AM 77.0 °F - 69.8 °F 78% 30.01 in 10.0 mi SE 5.8 mph - N/A   Mostly Cloudy
12:14 PM 75.2 °F - 69.8 °F 83% 30.00 in 10.0 mi SSE 8.1 mph - N/A   Overcast
12:34 PM 77.0 °F - 69.8 °F 78% 30.00 in 10.0 mi SE 6.9 mph - N/A   Scattered Clouds
12:54 PM 77.0 °F - 69.8 °F 78% 29.99 in 10.0 mi SE 9.2 mph - N/A   Clear
1:14 PM 77.0 °F - 69.8 °F 78% 29.99 in 10.0 mi SE 8.1 mph - N/A   Clear
1:34 PM 77.0 °F - 69.8 °F 78% 29.98 in 10.0 mi East 9.2 mph - N/A   Clear
1:54 PM 78.8 °F - 69.8 °F 74% 29.98 in 10.0 mi ESE 6.9 mph - N/A   Scattered Clouds
2:14 PM 80.6 °F 83.9 °F 69.8 °F 70% 29.97 in 10.0 mi SE 5.8 mph - N/A   Scattered Clouds
2:34 PM 78.8 °F - 69.8 °F 74% 29.97 in 10.0 mi SE 6.9 mph - N/A   Mostly Cloudy
2:54 PM 78.8 °F - 69.8 °F 74% 29.96 in 10.0 mi SE 8.1 mph - N/A   Mostly Cloudy
3:14 PM 82.4 °F 86.3 °F 69.8 °F 66% 29.96 in 10.0 mi ESE 10.4 mph - N/A   Scattered Clouds
3:34 PM 80.6 °F 83.9 °F 69.8 °F 70% 29.95 in 10.0 mi SE 8.1 mph - N/A   Scattered Clouds
3:54 PM 78.8 °F - 69.8 °F 74% 29.94 in 10.0 mi SE 9.2 mph - N/A   Scattered Clouds
4:14 PM 80.6 °F 83.9 °F 69.8 °F 70% 29.93 in 10.0 mi ESE 8.1 mph - N/A   Scattered Clouds
4:34 PM 80.6 °F 83.9 °F 69.8 °F 70% 29.93 in 10.0 mi ESE 6.9 mph - N/A   Clear
4:54 PM 80.6 °F 83.9 °F 69.8 °F 70% 29.93 in 10.0 mi East 8.1 mph - N/A   Scattered Clouds
5:14 PM 80.6 °F 83.9 °F 69.8 °F 70% 29.92 in 10.0 mi East 6.9 mph - N/A   Scattered Clouds
5:34 PM 80.6 °F 83.9 °F 69.8 °F 70% 29.92 in 10.0 mi East 8.1 mph - N/A   Clear
5:54 PM 78.8 °F - 69.8 °F 74% 29.91 in 10.0 mi East 9.2 mph - N/A   Clear
6:14 PM 78.8 °F - 69.8 °F 74% 29.91 in 10.0 mi East 6.9 mph - N/A   Clear
7:14 PM 78.8 °F - 69.8 °F 74% 29.92 in 10.0 mi East 6.9 mph - N/A   Clear
7:34 PM 77.0 °F - 69.8 °F 78% 29.93 in 10.0 mi East 5.8 mph - N/A   Clear
7:54 PM 77.0 °F - 69.8 °F 78% 29.93 in 10.0 mi East 10.4 mph - N/A   Clear
8:14 PM 77.0 °F - 69.8 °F 78% 29.93 in 10.0 mi ESE 5.8 mph - N/A   Clear
8:34 PM 75.2 °F - 69.8 °F 83% 29.93 in 10.0 mi East 5.8 mph - N/A   Clear
8:54 PM 75.2 °F - 69.8 °F 83% 29.93 in 10.0 mi East 5.8 mph - N/A   Clear
9:14 PM 75.2 °F - 69.8 °F 83% 29.93 in 10.0 mi East 8.1 mph - N/A   Clear
9:34 PM 73.4 °F - 69.8 °F 88% 29.93 in 10.0 mi East 6.9 mph - N/A   Clear
9:54 PM 73.4 °F - 69.8 °F 88% 29.93 in 10.0 mi East 8.1 mph - N/A   Clear
10:14 PM 73.4 °F - 69.8 °F 88% 29.93 in 10.0 mi East 5.8 mph - N/A   Clear
10:34 PM 73.4 °F - 69.8 °F 88% 29.93 in 10.0 mi East 5.8 mph - N/A   Clear
10:54 PM 73.4 °F - 69.8 °F 88% 29.93 in 10.0 mi East 8.1 mph - N/A   Clear
11:14 PM 73.4 °F - 69.8 °F 88% 29.94 in 10.0 mi East 6.9 mph - N/A   Clear
11:34 PM 73.4 °F - 69.8 °F 88% 29.93 in 10.0 mi East 8.1 mph - N/A   Clear